When you browse on this site, cookies collect data to enhance your experience and personalize the content and advertising you see.
Visit our Privacy Policy to learn more. By continuing to use the site, you agree to this use of cookies and data.
  • In Latvia
  • List of Countries
  • For 7 days
  • Water Temperature
  • Satellite Maps
  • Weather Map
  • Weather Widgets
  • user-avatar
    Login

    Hourly Weather Ganja

    Today, 20 July, Saturday

    Time Temperature Precipitation Wind Pressure Humidity
    00:00 +28°C° 0 mm 2 mps 725 mmHg 58%
    01:00 +27°C° 0 mm 2 mps 725 mmHg 60%
    02:00 +26°C° 0 mm 2 mps 725 mmHg 62%
    03:00 +26°C° 0 mm 2 mps 725 mmHg 64%
    04:00 +26°C° 0 mm 2 mps 725 mmHg 64%
    05:00 +26°C° 0 mm 2 mps 726 mmHg 63%
    06:00 +26°C° 0 mm 2 mps 726 mmHg 63%
    07:00 +28°C° 0 mm 2 mps 726 mmHg 60%
    08:00 +29°C° 0 mm 2 mps 726 mmHg 57%
    09:00 +30°C° 0 mm 2 mps 726 mmHg 54%
    10:00 +31°C° 0 mm 3 mps 726 mmHg 50%
    11:00 +33°C° 0 mm 3 mps 726 mmHg 46%
    12:00 +35°C° 0 mm 3 mps 726 mmHg 42%
    13:00 +36°C° 0 mm 4 mps 726 mmHg 38%
    14:00 +36°C° 0 mm 5 mps 726 mmHg 35%
    15:00 +37°C° 0 mm 5 mps 725 mmHg 31%
    16:00 +37°C° 0 mm 5 mps 725 mmHg 33%
    17:00 +36°C° 0 mm 5 mps 726 mmHg 34%
    18:00 +36°C° 0 mm 5 mps 726 mmHg 35%
    19:00 +34°C° 0 mm 5 mps 726 mmHg 37%
    20:00 +33°C° 0 mm 5 mps 727 mmHg 39%
    21:00 +30°C° 0 mm 5 mps 727 mmHg 41%
    22:00 +30°C° 0 mm 4 mps 727 mmHg 42%
    23:00 +29°C° 0 mm 4 mps 727 mmHg 43%

    Tomorrow, 21 July, Sunday

    Time Temperature Precipitation Wind Pressure Humidity
    00:00 +29°C° 0 mm 4 mps 727 mmHg 44%
    01:00 +28°C° 0 mm 4 mps 727 mmHg 45%
    02:00 +28°C° 0 mm 4 mps 727 mmHg 46%
    03:00 +27°C° 0 mm 4 mps 727 mmHg 48%
    04:00 +27°C° 0 mm 4 mps 727 mmHg 48%
    05:00 +27°C° 0 mm 3 mps 727 mmHg 49%
    06:00 +27°C° 0 mm 3 mps 727 mmHg 50%
    07:00 +29°C° 0 mm 3 mps 727 mmHg 46%
    08:00 +32°C° 0 mm 4 mps 727 mmHg 42%
    09:00 +33°C° 0 mm 4 mps 727 mmHg 39%
    10:00 +34°C° 0 mm 5 mps 727 mmHg 36%
    11:00 +36°C° 0 mm 6 mps 726 mmHg 34%
    12:00 +38°C° 0 mm 7 mps 726 mmHg 32%
    13:00 +38°C° 0 mm 7 mps 725 mmHg 31%
    14:00 +39°C° 0 mm 7 mps 725 mmHg 31%
    15:00 +39°C° 0 mm 7 mps 724 mmHg 30%
    16:00 +39°C° 0 mm 6 mps 724 mmHg 31%
    17:00 +37°C° 0 mm 5 mps 724 mmHg 33%
    18:00 +37°C° 0 mm 4 mps 724 mmHg 34%
    19:00 +35°C° 0 mm 4 mps 724 mmHg 37%
    20:00 +34°C° 0 mm 4 mps 725 mmHg 39%
    21:00 +32°C° 0 mm 4 mps 725 mmHg 41%
    22:00 +32°C° 0 mm 4 mps 725 mmHg 43%
    23:00 +30°C° 0 mm 4 mps 725 mmHg 44%

    Day after tomorrow, 22 July, Monday

    Time Temperature Precipitation Wind Pressure Humidity
    00:00 +29°C° 0 mm 3 mps 725 mmHg 46%
    01:00 +29°C° 0 mm 3 mps 724 mmHg 49%
    02:00 +28°C° 0 mm 2 mps 724 mmHg 52%
    03:00 +27°C° 0 mm 2 mps 724 mmHg 54%
    04:00 +27°C° 0 mm 1 mps 724 mmHg 55%
    05:00 +27°C° 0 mm 1 mps 724 mmHg 56%
    06:00 +28°C° 0 mm 1 mps 724 mmHg 57%
    07:00 +29°C° 0 mm 1 mps 724 mmHg 54%
    08:00 +30°C° 0 mm 2 mps 723 mmHg 51%
    09:00 +31°C° 0 mm 2 mps 723 mmHg 47%
    10:00 +34°C° 0 mm 2 mps 723 mmHg 45%
    11:00 +35°C° 0 mm 2 mps 723 mmHg 42%
    12:00 +36°C° 0 mm 2 mps 722 mmHg 39%
    13:00 +37°C° 0 mm 3 mps 722 mmHg 37%
    14:00 +38°C° 0 mm 3 mps 722 mmHg 36%
    15:00 +40°C° 0 mm 4 mps 721 mmHg 34%
    16:00 +38°C° 0 mm 4 mps 721 mmHg 35%
    17:00 +38°C° 0 mm 4 mps 721 mmHg 36%
    18:00 +37°C° 0 mm 4 mps 721 mmHg 38%
    19:00 +36°C° 0 mm 5 mps 722 mmHg 41%
    20:00 +34°C° 0 mm 5 mps 722 mmHg 44%
    21:00 +33°C° 0 mm 6 mps 723 mmHg 47%
    22:00 +32°C° 0 mm 5 mps 723 mmHg 50%
    23:00 +29°C° 0 mm 4 mps 722 mmHg 54%

    23 July, Tuesday

    Time Temperature Precipitation Wind Pressure Humidity
    00:00 +28°C° 0 mm 3 mps 722 mmHg 57%
    01:00 +28°C° 0 mm 3 mps 722 mmHg 60%
    02:00 +27°C° 0 mm 2 mps 722 mmHg 63%
    03:00 +26°C° 0 mm 2 mps 722 mmHg 66%
    04:00 +26°C° 0 mm 2 mps 722 mmHg 65%
    05:00 +26°C° 0 mm 2 mps 722 mmHg 65%
    06:00 +27°C° 0 mm 2 mps 722 mmHg 64%
    07:00 +28°C° 0 mm 2 mps 722 mmHg 60%
    08:00 +29°C° 0 mm 2 mps 722 mmHg 56%
    09:00 +30°C° 0 mm 3 mps 722 mmHg 52%
    10:00 +33°C° 0 mm 3 mps 722 mmHg 47%
    11:00 +34°C° 0 mm 4 mps 721 mmHg 43%
    12:00 +36°C° 0 mm 4 mps 721 mmHg 38%
    13:00 +36°C° 0 mm 5 mps 720 mmHg 37%
    14:00 +37°C° 0 mm 5 mps 720 mmHg 36%
    15:00 +39°C° 0 mm 5 mps 719 mmHg 34%
    16:00 +37°C° 0 mm 5 mps 719 mmHg 36%
    17:00 +36°C° 0 mm 4 mps 719 mmHg 38%
    18:00 +36°C° 0 mm 4 mps 719 mmHg 40%
    19:00 +34°C° 0.1 mm 3 mps 720 mmHg 44%
    20:00 +33°C° 0.1 mm 3 mps 720 mmHg 47%
    21:00 +30°C° 0.1 mm 3 mps 721 mmHg 51%
    22:00 +30°C° 0 mm 2 mps 721 mmHg 53%
    23:00 +29°C° 0 mm 2 mps 720 mmHg 55%

    24 July, Wednesday

    Time Temperature Precipitation Wind Pressure Humidity
    00:00 +28°C° 0 mm 2 mps 720 mmHg 57%
    01:00 +27°C° 0 mm 2 mps 720 mmHg 59%
    02:00 +27°C° 0 mm 2 mps 720 mmHg 61%
    03:00 +26°C° 0 mm 2 mps 720 mmHg 64%
    04:00 +27°C° 0 mm 2 mps 720 mmHg 64%
    05:00 +27°C° 0 mm 2 mps 720 mmHg 64%
    06:00 +27°C° 0 mm 2 mps 720 mmHg 64%
    07:00 +28°C° 0 mm 2 mps 720 mmHg 61%
    08:00 +29°C° 0 mm 2 mps 720 mmHg 57%
    09:00 +31°C° 0 mm 3 mps 720 mmHg 54%
    10:00 +33°C° 0 mm 3 mps 720 mmHg 51%
    11:00 +34°C° 0 mm 3 mps 720 mmHg 47%
    12:00 +35°C° 0 mm 2 mps 719 mmHg 44%
    13:00 +36°C° 0 mm 2 mps 719 mmHg 42%
    14:00 +37°C° 0 mm 2 mps 719 mmHg 40%
    15:00 +37°C° 0 mm 3 mps 719 mmHg 38%
    16:00 +37°C° 0 mm 2 mps 719 mmHg 38%
    17:00 +37°C° 0 mm 2 mps 719 mmHg 38%
    18:00 +37°C° 0 mm 2 mps 719 mmHg 39%
    19:00 +35°C° 0 mm 2 mps 719 mmHg 43%
    20:00 +33°C° 0 mm 3 mps 720 mmHg 46%
    21:00 +32°C° 0 mm 4 mps 720 mmHg 50%
    22:00 +30°C° 0 mm 3 mps 721 mmHg 53%
    23:00 +28°C° 0 mm 2 mps 721 mmHg 56%

    25 July, Thursday

    Time Temperature Precipitation Wind Pressure Humidity
    00:00 +27°C° 0 mm 2 mps 721 mmHg 59%
    01:00 +27°C° 0 mm 2 mps 721 mmHg 61%
    02:00 +26°C° 0 mm 2 mps 721 mmHg 64%
    03:00 +25°C° 0 mm 2 mps 721 mmHg 66%
    04:00 +26°C° 0 mm 2 mps 721 mmHg 65%
    05:00 +26°C° 0 mm 2 mps 721 mmHg 65%
    06:00 +26°C° 0 mm 3 mps 721 mmHg 65%
    07:00 +27°C° 0 mm 3 mps 721 mmHg 61%
    08:00 +28°C° 0 mm 4 mps 722 mmHg 57%
    09:00 +30°C° 0 mm 4 mps 722 mmHg 53%
    10:00 +32°C° 0 mm 4 mps 721 mmHg 50%
    11:00 +32°C° 0 mm 4 mps 721 mmHg 47%
    12:00 +33°C° 0 mm 3 mps 721 mmHg 45%
    13:00 +34°C° 0.3 mm 3 mps 720 mmHg 44%
    14:00 +34°C° 0.3 mm 2 mps 720 mmHg 43%
    15:00 +35°C° 0.3 mm 2 mps 720 mmHg 42%
    16:00 +34°C° 0.2 mm 2 mps 720 mmHg 43%
    17:00 +34°C° 0.2 mm 2 mps 720 mmHg 45%
    18:00 +32°C° 0.2 mm 2 mps 720 mmHg 47%
    19:00 +31°C° 0.2 mm 3 mps 721 mmHg 51%
    20:00 +29°C° 0.2 mm 4 mps 721 mmHg 54%
    21:00 +27°C° 0.2 mm 4 mps 722 mmHg 58%
    22:00 +26°C° 0.5 mm 4 mps 722 mmHg 63%
    23:00 +25°C° 0.5 mm 3 mps 722 mmHg 68%
    Show more